| time (UTC) | temp C | wind direction | speed KPH | gust KPH | rain 1hr cm | rain 24hr cm | rain mn cm | humidity % | barometer mb |
| 20260906083206 | 22 | 240 | 0.0 | 3.2 | 0.00 | 0.00 | 0.00 | 92 | 1011.5 |
| 20260906082435 | 22 | 240 | 0.0 | 3.2 | 0.00 | 0.00 | 0.00 | 92 | 1011.2 |
| 20260906081945 | 22 | 231 | 0.0 | 3.2 | 0.00 | 0.00 | 0.00 | 92 | 1011.2 |
| 20260906081940 | 22 | 231 | 0.0 | 3.2 | 0.00 | 0.00 | 0.00 | 91 | 1011.2 |
| 20260906080935 | 22 | 221 | 3.2 | 3.2 | 0.00 | 0.00 | 0.00 | 91 | 1011.2 |
| 20260906080435 | 22 | 231 | 1.6 | 3.2 | 0.00 | 0.00 | 0.00 | 91 | 1011.0 |
| 20260906075938 | 22 | 186 | 0.0 | 3.2 | 0.00 | 0.00 | 0.00 | 91 | 1011.1 |
| 20260906075712 | 22 | 231 | 0.0 | 3.2 | 0.00 | 0.00 | 0.00 | 91 | 1010.9 |
| 20260906074936 | 22 | 216 | 0.0 | 3.2 | 0.00 | 0.00 | 0.00 | 91 | 1011.0 |
| 20260906074436 | 22 | 157 | 0.0 | 3.2 | 0.00 | 0.00 | 0.00 | 90 | 1010.9 |
| 20260906073937 | 22 | 256 | 0.0 | 3.2 | 0.00 | 0.00 | 0.00 | 90 | 1010.9 |
| 20260906073439 | 22 | 219 | 3.2 | 3.2 | 0.00 | 0.00 | 0.00 | 90 | 1010.9 |
| 20260906072935 | 22 | 307 | 0.0 | 3.2 | 0.00 | 0.00 | 0.00 | 90 | 1011.1 |
| 20260906072436 | 22 | 307 | 0.0 | 3.2 | 0.00 | 0.00 | 0.00 | 90 | 1011.0 |
| 20260906071938 | 22 | 143 | 3.2 | 3.2 | 0.00 | 0.00 | 0.00 | 90 | 1011.2 |
| 20260906071435 | 22 | 248 | 0.0 | 3.2 | 0.00 | 0.00 | 0.00 | 90 | 1011.0 |
| 20260906070936 | 22 | 252 | 3.2 | 4.8 | 0.00 | 0.00 | 0.00 | 90 | 1011.1 |
| 20260906070437 | 22 | 240 | 3.2 | 4.8 | 0.00 | 0.00 | 0.00 | 90 | 1011.3 |
| 20260906070205 | 22 | 251 | 3.2 | 3.2 | 0.00 | 0.00 | 0.00 | 89 | 1011.0 |
| 20260906065436 | 23 | 232 | 3.2 | 3.2 | 0.00 | 0.00 | 0.00 | 89 | 1011.0 |
| 20260906065204 | 23 | 225 | 0.0 | 3.2 | 0.00 | 0.00 | 0.00 | 89 | 1011.3 |
| 20260906064436 | 23 | 216 | 1.6 | 3.2 | 0.00 | 0.00 | 0.00 | 89 | 1011.2 |
| 20260906063936 | 23 | 224 | 0.0 | 4.8 | 0.00 | 0.00 | 0.00 | 89 | 1011.3 |
| 20260906063436 | 23 | 216 | 3.2 | 4.8 | 0.00 | 0.00 | 0.00 | 88 | 1011.3 |
| 20260906062936 | 23 | 246 | 3.2 | 4.8 | 0.00 | 0.00 | 0.00 | 88 | 1011.2 |
| 20260906062710 | 23 | 198 | 3.2 | 4.8 | 0.00 | 0.00 | 0.00 | 88 | 1011.3 |
| 20260906061935 | 23 | 264 | 3.2 | 4.8 | 0.00 | 0.00 | 0.00 | 88 | 1011.3 |
| 20260906061436 | 23 | 240 | 1.6 | 3.2 | 0.00 | 0.00 | 0.00 | 88 | 1011.4 |
| 20260906060935 | 23 | 240 | 3.2 | 4.8 | 0.00 | 0.00 | 0.00 | 88 | 1011.6 |
| 20260906060436 | 23 | 227 | 3.2 | 4.8 | 0.00 | 0.00 | 0.00 | 88 | 1011.5 |
| 20260906055935 | 23 | 216 | 3.2 | 4.8 | 0.00 | 0.00 | 0.00 | 87 | 1011.6 |
| 20260906055437 | 23 | 232 | 0.0 | 4.8 | 0.00 | 0.00 | 0.00 | 87 | 1011.6 |
| 20260906054935 | 23 | 240 | 3.2 | 4.8 | 0.00 | 0.00 | 0.00 | 87 | 1011.7 |
| 20260906054436 | 23 | 285 | 3.2 | 4.8 | 0.00 | 0.00 | 0.00 | 87 | 1011.7 |
| 20260906053935 | 23 | 264 | 1.6 | 4.8 | 0.00 | 0.00 | 0.00 | 87 | 1011.7 |
| 20260906053443 | 23 | 227 | 4.8 | 4.8 | 0.00 | 0.00 | 0.00 | 87 | 1012.0 |
| 20260906053438 | 23 | 233 | 0.0 | 4.8 | 0.00 | 0.00 | 0.00 | 87 | 1011.8 |
| 20260906052436 | 23 | 256 | 0.0 | 3.2 | 0.00 | 0.00 | 0.00 | 87 | 1011.9 |
| 20260906051935 | 23 | 315 | 0.0 | 3.2 | 0.00 | 0.00 | 0.00 | 86 | 1012.2 |
| 20260906051435 | 23 | 248 | 0.0 | 3.2 | 0.00 | 0.00 | 0.00 | 86 | 1012.1 |
| 20260906050935 | 23 | 168 | 0.0 | 3.2 | 0.00 | 0.00 | 0.00 | 86 | 1012.1 |
| 20260906050436 | 23 | 161 | 0.0 | 3.2 | 0.00 | 0.00 | 0.00 | 86 | 1012.2 |
| 20260906045936 | 23 | 315 | 0.0 | 3.2 | 0.00 | 0.00 | 0.00 | 85 | 1012.2 |
| 20260906045437 | 23 | 185 | 3.2 | 4.8 | 0.00 | 0.00 | 0.00 | 85 | 1012.3 |
| 20260906044936 | 23 | 274 | 0.0 | 6.4 | 0.00 | 0.00 | 0.00 | 85 | 1012.2 |
| 20260906044709 | 23 | 248 | 0.0 | 6.4 | 0.00 | 0.00 | 0.00 | 84 | 1012.4 |
| 20260906043936 | 23 | 231 | 3.2 | 6.4 | 0.00 | 0.00 | 0.00 | 84 | 1012.3 |
| 20260906043436 | 23 | 285 | 6.4 | 6.4 | 0.00 | 0.00 | 0.00 | 84 | 1012.3 |
| 20260906043209 | 23 | 248 | 3.2 | 6.4 | 0.00 | 0.00 | 0.00 | 84 | 1012.2 |
| 20260906042436 | 23 | 261 | 3.2 | 6.4 | 0.00 | 0.00 | 0.00 | 84 | 1012.1 |
| 20260906041933 | 23 | 216 | 1.6 | 4.8 | 0.00 | 0.00 | 0.00 | 84 | 1012.3 |
| 20260906041431 | 23 | 213 | 3.2 | 4.8 | 0.00 | 0.00 | 0.00 | 84 | 1012.5 |
| 20260906040930 | 23 | 168 | 3.2 | 4.8 | 0.00 | 0.00 | 0.00 | 83 | 1012.2 |
| 20260906040431 | 23 | 232 | 3.2 | 4.8 | 0.00 | 0.00 | 0.00 | 83 | 1012.4 |
| 20260906035931 | 23 | 255 | 3.2 | 6.4 | 0.00 | 0.00 | 0.00 | 83 | 1012.2 |
| 20260906035429 | 23 | 256 | 1.6 | 6.4 | 0.00 | 0.00 | 0.00 | 82 | 1012.4 |
| 20260906034931 | 23 | 246 | 3.2 | 9.7 | 0.00 | 0.00 | 0.00 | 82 | 1012.3 |
| 20260906034433 | 23 | 245 | 3.2 | 9.7 | 0.00 | 0.00 | 0.00 | 82 | 1012.4 |
| 20260906033931 | 23 | 190 | 4.8 | 6.4 | 0.00 | 0.00 | 0.00 | 82 | 1012.5 |
| 20260906033431 | 23 | 262 | 3.2 | 6.4 | 0.00 | 0.00 | 0.00 | 82 | 1012.6 |
| 20260906032931 | 24 | 240 | 3.2 | 6.4 | 0.00 | 0.00 | 0.00 | 81 | 1012.7 |
| 20260906032430 | 23 | 285 | 4.8 | 8.0 | 0.00 | 0.00 | 0.00 | 81 | 1012.7 |
| 20260906031932 | 23 | 221 | 0.0 | 9.7 | 0.00 | 0.00 | 0.00 | 81 | 1012.7 |
| 20260906031703 | 23 | 264 | 1.6 | 11.3 | 0.00 | 0.00 | 0.00 | 82 | 1012.9 |
| 20260906030931 | 23 | 150 | 1.6 | 11.3 | 0.00 | 0.00 | 0.00 | 82 | 1012.6 |
| 20260906030431 | 23 | 240 | 0.0 | 8.0 | 0.00 | 0.00 | 0.00 | 82 | 1012.8 |
| 20260906025931 | 23 | 233 | 3.2 | 9.7 | 0.00 | 0.00 | 0.00 | 82 | 1012.2 |
| 20260906025440 | 23 | 231 | 0.0 | 3.2 | 0.00 | 0.00 | 0.00 | 82 | 1012.7 |
| 20260906025434 | 23 | 267 | 3.2 | 9.7 | 0.00 | 0.00 | 0.00 | 82 | 1012.7 |
| 20260906024431 | 23 | 253 | 0.0 | 3.2 | 0.00 | 0.00 | 0.00 | 81 | 1012.4 |
| 20260906023931 | 23 | 44 | 0.0 | 3.2 | 0.00 | 0.00 | 0.00 | 80 | 1012.3 |
| 20260906023707 | 24 | 240 | 0.0 | 3.2 | 0.00 | 0.00 | 0.00 | 80 | 1012.6 |
| 20260906022930 | 24 | 224 | 1.6 | 3.2 | 0.00 | 0.00 | 0.00 | 80 | 1012.4 |
| 20260906022430 | 23 | 51 | 0.0 | 3.2 | 0.00 | 0.00 | 0.00 | 80 | 1012.4 |
| 20260906021932 | 24 | 51 | 1.6 | 3.2 | 0.00 | 0.00 | 0.00 | 79 | 1012.1 |
| 20260906021430 | 24 | 33 | 0.0 | 3.2 | 0.00 | 0.00 | 0.00 | 79 | 1012.1 |
| 20260906020929 | 24 | 60 | 0.0 | 3.2 | 0.00 | 0.00 | 0.00 | 79 | 1012.2 |
| 20260906020431 | 24 | 240 | 0.0 | 3.2 | 0.00 | 0.00 | 0.00 | 79 | 1012.2 |
| 20260906020203 | 24 | 219 | 3.2 | 3.2 | 0.00 | 0.00 | 0.00 | 79 | 1012.2 |
| 20260906015429 | 24 | 322 | 0.0 | 3.2 | 0.00 | 0.00 | 0.00 | 78 | 1012.0 |
| 20260906014932 | 25 | 52 | 0.0 | 3.2 | 0.00 | 0.00 | 0.00 | 78 | 1012.1 |
| 20260906014431 | 25 | 52 | 0.0 | 3.2 | 0.00 | 0.00 | 0.00 | 77 | 1012.3 |
| 20260906013931 | 25 | 52 | 0.0 | 3.2 | 0.00 | 0.00 | 0.00 | 78 | 1012.1 |
| 20260906013431 | 25 | 240 | 0.0 | 3.2 | 0.00 | 0.00 | 0.00 | 77 | 1012.2 |
| 20260906012932 | 25 | 232 | 0.0 | 3.2 | 0.00 | 0.00 | 0.00 | 77 | 1012.2 |
| 20260906012432 | 25 | 240 | 0.0 | 3.2 | 0.00 | 0.00 | 0.00 | 76 | 1012.0 |
| 20260906011930 | 25 | 256 | 0.0 | 0.0 | 0.00 | 0.00 | 0.00 | 77 | 1012.1 |
| 20260906011430 | 25 | 256 | 0.0 | 3.2 | 0.00 | 0.00 | 0.00 | 76 | 1012.1 |
| 20260906010931 | 25 | 256 | 0.0 | 3.2 | 0.00 | 0.00 | 0.00 | 75 | 1011.8 |
| 20260906010432 | 25 | 256 | 0.0 | 3.2 | 0.00 | 0.00 | 0.00 | 75 | 1011.8 |
| 20260906005931 | 25 | 240 | 0.0 | 3.2 | 0.00 | 0.00 | 0.00 | 73 | 1012.1 |
| 20260906005430 | 25 | 231 | 0.0 | 3.2 | 0.00 | 0.00 | 0.00 | 73 | 1012.1 |
| 20260906004930 | 25 | 81 | 0.0 | 0.0 | 0.00 | 0.00 | 0.00 | 73 | 1011.9 |
| 20260906004431 | 25 | 81 | 0.0 | 0.0 | 0.00 | 0.00 | 0.00 | 73 | 1012.0 |
| 20260906003930 | 26 | 81 | 0.0 | 0.0 | 0.00 | 0.00 | 0.00 | 72 | 1011.8 |
| 20260906003707 | 26 | 81 | 0.0 | 0.0 | 0.00 | 0.00 | 0.00 | 73 | 1011.9 |
| 20260906003205 | 26 | 81 | 0.0 | 0.0 | 0.00 | 0.00 | 0.00 | 71 | 1011.5 |
| 20260906002431 | 26 | 81 | 0.0 | 3.2 | 0.00 | 0.00 | 0.00 | 73 | 1011.6 |
| 20260906001930 | 26 | 81 | 0.0 | 3.2 | 0.00 | 0.00 | 0.00 | 73 | 1011.5 |
| 20260906001434 | 26 | 60 | 0.0 | 1.6 | 0.00 | 0.00 | 0.00 | 73 | 1011.2 |
| 20260906000931 | 26 | 270 | 0.0 | 3.2 | 0.00 | 0.00 | 0.00 | 73 | 1011.4 |
| 20260906000433 | 26 | 270 | 0.0 | 3.2 | 0.00 | 0.00 | 0.00 | 72 | 1011.5 |
| 20260905235931 | 26 | 248 | 0.0 | 0.0 | 0.00 | 0.00 | 0.00 | 71 | 1011.4 |
| 20260905235429 | 27 | 248 | 0.0 | 0.0 | 0.00 | 0.00 | 0.00 | 70 | 1011.4 |
| 20260905234930 | 27 | 248 | 0.0 | 0.0 | 0.00 | 0.00 | 0.00 | 69 | 1010.9 |
| 20260905234431 | 27 | 248 | 0.0 | 0.0 | 0.00 | 0.00 | 0.00 | 68 | 1011.1 |
| 20260905233931 | 27 | 248 | 0.0 | 0.0 | 0.00 | 0.00 | 0.00 | 68 | 1011.2 |
| 20260905233431 | 27 | 248 | 0.0 | 3.2 | 0.00 | 0.00 | 0.00 | 66 | 1011.1 |
| 20260905232931 | 27 | 248 | 0.0 | 3.2 | 0.00 | 0.00 | 0.00 | 66 | 1010.8 |
| 20260905232430 | 27 | 323 | 3.2 | 3.2 | 0.00 | 0.00 | 0.00 | 65 | 1010.9 |
| 20260905231933 | 28 | 330 | 3.2 | 3.2 | 0.00 | 0.00 | 0.00 | 64 | 1011.0 |
| 20260905231431 | 28 | 330 | 0.0 | 4.8 | 0.00 | 0.00 | 0.00 | 64 | 1011.0 |
| 20260905231201 | 28 | 39 | 3.2 | 4.8 | 0.00 | 0.00 | 0.00 | 65 | 1010.8 |
| 20260905230431 | 28 | 330 | 0.0 | 4.8 | 0.00 | 0.00 | 0.00 | 64 | 1010.9 |
| 20260905225930 | 28 | 30 | 0.0 | 3.2 | 0.00 | 0.00 | 0.00 | 65 | 1011.0 |
| 20260905225701 | 28 | 330 | 0.0 | 3.2 | 0.00 | 0.00 | 0.00 | 65 | 1010.7 |
| 20260905224930 | 28 | 337 | 3.2 | 3.2 | 0.00 | 0.00 | 0.00 | 64 | 1010.8 |
| 20260905224430 | 28 | 341 | 3.2 | 3.2 | 0.00 | 0.00 | 0.00 | 63 | 1010.7 |
| 20260905223937 | 28 | 341 | 3.2 | 4.8 | 0.00 | 0.00 | 0.00 | 63 | 1010.7 |
| 20260905222931 | 28 | 344 | 0.0 | 4.8 | 0.00 | 0.00 | 0.00 | 63 | 1010.7 |
| 20260905222703 | 28 | 24 | 0.0 | 4.8 | 0.00 | 0.00 | 0.00 | 63 | 1010.4 |
| 20260905221931 | 28 | 39 | 0.0 | 6.4 | 0.00 | 0.00 | 0.00 | 64 | 1010.6 |
| 20260905221431 | 28 | 330 | 0.0 | 9.7 | 0.00 | 0.00 | 0.00 | 63 | 1010.7 |
| 20260905220930 | 28 | 312 | 3.2 | 9.7 | 0.00 | 0.00 | 0.00 | 63 | 1010.9 |
| 20260905220431 | 28 | 314 | 3.2 | 6.4 | 0.00 | 0.00 | 0.00 | 64 | 1010.8 |
| 20260905215931 | 28 | 324 | 0.0 | 6.4 | 0.00 | 0.00 | 0.00 | 66 | 1010.5 |
| 20260905215430 | 28 | 345 | 1.6 | 8.0 | 0.00 | 0.00 | 0.00 | 66 | 1010.6 |
| 20260905215214 | 28 | 312 | 3.2 | 6.4 | 0.00 | 0.00 | 0.00 | 67 | 1010.3 |
| 20260905215210 | 28 | 330 | 1.6 | 8.0 | 0.00 | 0.00 | 0.00 | 66 | 1010.7 |
| 20260905214206 | 27 | 337 | 3.2 | 4.8 | 0.00 | 0.00 | 0.00 | 67 | 1010.8 |
| 20260905213431 | 27 | 356 | 3.2 | 4.8 | 0.00 | 0.00 | 0.00 | 68 | 1011.0 |
| 20260905213203 | 27 | 323 | 0.0 | 6.4 | 0.00 | 0.00 | 0.00 | 68 | 1011.0 |
| 20260905212430 | 27 | 44 | 0.0 | 6.4 | 0.00 | 0.00 | 0.00 | 68 | 1011.5 |
| 20260905211933 | 27 | 330 | 3.2 | 3.2 | 0.00 | 0.00 | 0.00 | 70 | 1011.6 |
| 20260905211430 | 27 | 316 | 0.0 | 3.2 | 0.00 | 0.00 | 0.00 | 70 | 1011.7 |
| 20260905211201 | 27 | 338 | 0.0 | 4.8 | 0.00 | 0.00 | 0.00 | 71 | 1012.0 |
| 20260905210431 | 27 | 307 | 1.6 | 4.8 | 0.00 | 0.00 | 0.00 | 70 | 1011.9 |
| 20260905205931 | 27 | 240 | 0.0 | 4.8 | 0.00 | 0.00 | 0.00 | 70 | 1012.0 |
| 20260905205430 | 27 | 307 | 0.0 | 4.8 | 0.00 | 0.00 | 0.00 | 70 | 1011.7 |
| 20260905204931 | 27 | 253 | 3.2 | 4.8 | 0.00 | 0.00 | 0.00 | 70 | 1011.8 |
| 20260905204431 | 27 | 323 | 3.2 | 3.2 | 0.00 | 0.00 | 0.00 | 70 | 1011.7 |
| 20260905203931 | 27 | 232 | 3.2 | 3.2 | 0.00 | 0.00 | 0.00 | 70 | 1011.4 |
| 20260905203434 | 27 | 240 | 0.0 | 4.8 | 0.00 | 0.00 | 0.00 | 71 | 1011.4 |
| 20260905202931 | 27 | 274 | 3.2 | 4.8 | 0.00 | 0.00 | 0.00 | 71 | 1011.4 |
| 20260905202429 | 27 | 249 | 0.0 | 6.4 | 0.00 | 0.00 | 0.00 | 71 | 1011.2 |
| 20260905201932 | 27 | 314 | 3.2 | 6.4 | 0.00 | 0.00 | 0.00 | 71 | 1011.2 |
| 20260905201431 | 27 | 353 | 3.2 | 8.0 | 0.00 | 0.00 | 0.00 | 70 | 1011.2 |
| 20260905201200 | 27 | 348 | 0.0 | 9.7 | 0.00 | 0.00 | 0.00 | 70 | 1011.1 |
| 20260905200431 | 27 | 335 | 3.2 | 14.5 | 0.00 | 0.00 | 0.00 | 70 | 1011.1 |
| 20260905200203 | 27 | 33 | 6.4 | 16.1 | 0.00 | 0.00 | 0.00 | 68 | 1011.1 |
| 20260905195430 | 27 | 48 | 6.4 | 16.1 | 0.00 | 0.00 | 0.00 | 68 | 1011.2 |
| 20260905195200 | 28 | 40 | 8.0 | 14.5 | 0.00 | 0.00 | 0.00 | 67 | 1011.4 |
| 20260905194431 | 28 | 330 | 3.2 | 27.4 | 0.00 | 0.00 | 0.00 | 66 | 1011.1 |
| 20260905193932 | 28 | 44 | 6.4 | 27.4 | 0.00 | 0.00 | 0.00 | 65 | 1011.0 |
| 20260905193705 | 29 | 8 | 19.3 | 27.4 | 0.00 | 0.00 | 0.00 | 62 | 1010.6 |
| 20260905192931 | 30 | 19 | 6.4 | 19.3 | 0.00 | 0.00 | 0.00 | 61 | 1011.2 |
| 20260905192441 | 31 | 25 | 9.7 | 35.4 | 0.00 | 0.00 | 0.00 | 55 | 1010.9 |
| 20260905192436 | 31 | 13 | 12.9 | 35.4 | 0.00 | 0.00 | 0.00 | 58 | 1010.7 |
| 20260905191431 | 34 | 22 | 30.6 | 30.6 | 0.00 | 0.00 | 0.00 | 49 | 1011.1 |
| 20260905190931 | 34 | 15 | 6.4 | 9.7 | 0.00 | 0.00 | 0.00 | 48 | 1010.8 |
| 20260905190431 | 35 | 52 | 4.8 | 9.7 | 0.00 | 0.00 | 0.00 | 47 | 1010.9 |
| 20260905185931 | 34 | 76 | 4.8 | 16.1 | 0.00 | 0.00 | 0.00 | 47 | 1010.8 |
| 20260905185431 | 34 | 22 | 4.8 | 16.1 | 0.00 | 0.00 | 0.00 | 46 | 1010.8 |
| 20260905184940 | 36 | 51 | 12.9 | 12.9 | 0.00 | 0.00 | 0.00 | 45 | 1011.1 |
| 20260905184936 | 35 | 63 | 8.0 | 12.9 | 0.00 | 0.00 | 0.00 | 45 | 1011.0 |
| 20260905183931 | 36 | 227 | 0.0 | 9.7 | 0.00 | 0.00 | 0.00 | 45 | 1011.3 |
| 20260905183431 | 35 | 45 | 3.2 | 9.7 | 0.00 | 0.00 | 0.00 | 47 | 1011.1 |
| 20260905182931 | 36 | 65 | 0.0 | 9.7 | 0.00 | 0.00 | 0.00 | 46 | 1011.1 |
| 20260905182705 | 36 | 84 | 0.0 | 14.5 | 0.00 | 0.00 | 0.00 | 46 | 1011.0 |
| 20260905181932 | 35 | 45 | 8.0 | 14.5 | 0.00 | 0.00 | 0.00 | 47 | 1011.2 |
| 20260905181431 | 36 | 127 | 1.6 | 9.7 | 0.00 | 0.00 | 0.00 | 45 | 1011.4 |
| 20260905180931 | 35 | 234 | 0.0 | 8.0 | 0.00 | 0.00 | 0.00 | 47 | 1011.4 |
| 20260905180431 | 35 | 150 | 3.2 | 8.0 | 0.00 | 0.00 | 0.00 | 46 | 1011.4 |
| 20260905175930 | 35 | 26 | 3.2 | 9.7 | 0.00 | 0.00 | 0.00 | 47 | 1011.5 |
| 20260905175431 | 35 | 33 | 3.2 | 9.7 | 0.00 | 0.00 | 0.00 | 49 | 1011.8 |
| 20260905175205 | 34 | 67 | 6.4 | 8.0 | 0.00 | 0.00 | 0.00 | 50 | 1011.9 |
| 20260905174431 | 33 | 51 | 1.6 | 8.0 | 0.00 | 0.00 | 0.00 | 52 | 1012.1 |
| 20260905173931 | 34 | 40 | 8.0 | 8.0 | 0.00 | 0.00 | 0.00 | 50 | 1012.1 |
| 20260905173431 | 35 | 52 | 4.8 | 8.0 | 0.00 | 0.00 | 0.00 | 49 | 1012.3 |
| 20260905172931 | 34 | 18 | 0.0 | 4.8 | 0.00 | 0.00 | 0.00 | 51 | 1012.4 |
| 20260905172430 | 35 | 33 | 0.0 | 9.7 | 0.00 | 0.00 | 0.00 | 51 | 1012.4 |
| 20260905171932 | 34 | 90 | 0.0 | 12.9 | 0.00 | 0.00 | 0.00 | 51 | 1012.3 |
| 20260905171705 | 33 | 77 | 8.0 | 12.9 | 0.00 | 0.00 | 0.00 | 50 | 1012.5 |
| 20260905170930 | 34 | 150 | 0.0 | 8.0 | 0.00 | 0.00 | 0.00 | 52 | 1012.7 |
| 20260905170705 | 33 | 89 | 4.8 | 12.9 | 0.00 | 0.00 | 0.00 | 53 | 1012.5 |
| 20260905165931 | 33 | 69 | 6.4 | 12.9 | 0.00 | 0.00 | 0.00 | 52 | 1012.7 |
| 20260905165429 | 33 | 60 | 0.0 | 8.0 | 0.00 | 0.00 | 0.00 | 54 | 1013.0 |
| 20260905164931 | 33 | 150 | 3.2 | 8.0 | 0.00 | 0.00 | 0.00 | 55 | 1013.0 |
| 20260905164701 | 33 | 41 | 3.2 | 9.7 | 0.00 | 0.00 | 0.00 | 57 | 1013.2 |
| 20260905163930 | 33 | 60 | 3.2 | 9.7 | 0.00 | 0.00 | 0.00 | 58 | 1013.2 |
| 20260905163431 | 33 | 84 | 0.0 | 8.0 | 0.00 | 0.00 | 0.00 | 58 | 1013.0 |
| 20260905162930 | 33 | 71 | 3.2 | 8.0 | 0.00 | 0.00 | 0.00 | 58 | 1013.4 |
| 20260905162701 | 33 | 79 | 0.0 | 6.4 | 0.00 | 0.00 | 0.00 | 59 | 1013.3 |
| 20260905161930 | 32 | 66 | 3.2 | 6.4 | 0.00 | 0.00 | 0.00 | 58 | 1013.1 |
| 20260905161700 | 32 | 150 | 0.0 | 6.4 | 0.00 | 0.00 | 0.00 | 61 | 1013.4 |
| 20260905160931 | 32 | 127 | 1.6 | 6.4 | 0.00 | 0.00 | 0.00 | 63 | 1013.6 |
| 20260905160430 | 32 | 67 | 3.2 | 4.8 | 0.00 | 0.00 | 0.00 | 63 | 1013.6 |
| 20260905155929 | 31 | 90 | 3.2 | 4.8 | 0.00 | 0.00 | 0.00 | 64 | 1013.5 |
| 20260905155430 | 31 | 264 | 0.0 | 4.8 | 0.00 | 0.00 | 0.00 | 66 | 1013.6 |
| 20260905154932 | 31 | 345 | 1.6 | 4.8 | 0.00 | 0.00 | 0.00 | 65 | 1013.7 |
| 20260905154431 | 31 | 44 | 0.0 | 4.8 | 0.00 | 0.00 | 0.00 | 67 | 1013.6 |
| 20260905153930 | 31 | 30 | 3.2 | 4.8 | 0.00 | 0.00 | 0.00 | 68 | 1013.7 |
| 20260905153434 | 31 | 251 | 3.2 | 4.8 | 0.00 | 0.00 | 0.00 | 68 | 1013.6 |
| 20260905152930 | 31 | 353 | 0.0 | 4.8 | 0.00 | 0.00 | 0.00 | 69 | 1013.7 |
| 20260905152431 | 30 | 330 | 0.0 | 4.8 | 0.00 | 0.00 | 0.00 | 69 | 1013.6 |
| 20260905151930 | 30 | 234 | 3.2 | 6.4 | 0.00 | 0.00 | 0.00 | 71 | 1013.7 |
| 20260905151430 | 30 | 334 | 3.2 | 6.4 | 0.00 | 0.00 | 0.00 | 72 | 1013.4 |
| 20260905150931 | 30 | 330 | 0.0 | 4.8 | 0.00 | 0.00 | 0.00 | 72 | 1013.6 |
| 20260905150431 | 30 | 249 | 0.0 | 4.8 | 0.00 | 0.00 | 0.00 | 73 | 1013.4 |
| 20260905145929 | 29 | 330 | 0.0 | 4.8 | 0.00 | 0.00 | 0.00 | 74 | 1013.8 |
| 20260905145441 | 29 | 232 | 0.0 | 6.4 | 0.00 | 0.00 | 0.00 | 75 | 1013.9 |
| 20260905145437 | 29 | 224 | 0.0 | 6.4 | 0.00 | 0.00 | 0.00 | 74 | 1013.9 |
| 20260905144430 | 29 | 140 | 3.2 | 3.2 | 0.00 | 0.00 | 0.00 | 75 | 1013.7 |
| 20260905143930 | 28 | 51 | 0.0 | 3.2 | 0.00 | 0.00 | 0.00 | 76 | 1013.6 |
| 20260905143430 | 28 | 224 | 1.6 | 4.8 | 0.00 | 0.00 | 0.00 | 77 | 1014.1 |
| 20260905142929 | 28 | 257 | 0.0 | 4.8 | 0.00 | 0.00 | 0.00 | 77 | 1014.0 |
| 20260905142429 | 28 | 173 | 0.0 | 4.8 | 0.00 | 0.00 | 0.00 | 77 | 1014.0 |
| 20260905141930 | 28 | 240 | 3.2 | 4.8 | 0.00 | 0.00 | 0.00 | 78 | 1013.9 |
| 20260905141702 | 28 | 240 | 3.2 | 4.8 | 0.00 | 0.00 | 0.00 | 78 | 1013.8 |
| 20260905140930 | 27 | 224 | 3.2 | 4.8 | 0.00 | 0.00 | 0.00 | 78 | 1014.1 |
| 20260905140704 | 27 | 255 | 3.2 | 4.8 | 0.00 | 0.00 | 0.00 | 80 | 1013.9 |
| 20260905135929 | 27 | 240 | 3.2 | 4.8 | 0.00 | 0.00 | 0.00 | 80 | 1013.9 |
| 20260905135430 | 27 | 256 | 0.0 | 4.8 | 0.00 | 0.00 | 0.00 | 81 | 1013.9 |
| 20260905135203 | 27 | 216 | 1.6 | 6.4 | 0.00 | 0.00 | 0.00 | 81 | 1014.0 |
| 20260905134431 | 27 | 216 | 0.0 | 6.4 | 0.00 | 0.00 | 0.00 | 81 | 1013.9 |
| 20260905134156 | 26 | 233 | 3.2 | 6.4 | 0.00 | 0.00 | 0.00 | 82 | 1014.0 |
| 20260905133422 | 26 | 270 | 3.2 | 6.4 | 0.00 | 0.00 | 0.00 | 83 | 1013.9 |
| 20260905132923 | 26 | 225 | 3.2 | 4.8 | 0.00 | 0.00 | 0.00 | 83 | 1014.2 |
| 20260905132422 | 26 | 227 | 4.8 | 4.8 | 0.00 | 0.00 | 0.00 | 84 | 1014.0 |
| 20260905132154 | 26 | 213 | 0.0 | 8.0 | 0.00 | 0.00 | 0.00 | 84 | 1014.3 |
| 20260905131424 | 26 | 215 | 3.2 | 8.0 | 0.00 | 0.00 | 0.00 | 84 | 1014.2 |
| 20260905130922 | 26 | 232 | 0.0 | 8.0 | 0.00 | 0.00 | 0.00 | 84 | 1014.2 |
| 20260905130424 | 25 | 225 | 3.2 | 6.4 | 0.00 | 0.00 | 0.00 | 85 | 1014.0 |
| 20260905125922 | 25 | 225 | 0.0 | 6.4 | 0.00 | 0.00 | 0.00 | 85 | 1014.1 |
| 20260905125423 | 25 | 212 | 6.4 | 6.4 | 0.00 | 0.00 | 0.00 | 86 | 1014.4 |
| 20260905125155 | 25 | 224 | 1.6 | 8.0 | 0.00 | 0.00 | 0.00 | 86 | 1014.3 |
| 20260905124654 | 25 | 229 | 3.2 | 8.0 | 0.00 | 0.00 | 0.00 | 86 | 1014.4 |
| 20260905123922 | 25 | 233 | 3.2 | 9.7 | 0.00 | 0.00 | 0.00 | 87 | 1014.5 |
| 20260905123423 | 25 | 248 | 0.0 | 9.7 | 0.00 | 0.00 | 0.00 | 87 | 1014.3 |
| 20260905123153 | 25 | 249 | 4.8 | 6.4 | 0.00 | 0.00 | 0.00 | 88 | 1014.5 |
| 20260905122422 | 25 | 213 | 3.2 | 6.4 | 0.00 | 0.00 | 0.00 | 88 | 1014.4 |
| 20260905121925 | 25 | 218 | 3.2 | 6.4 | 0.00 | 0.00 | 0.00 | 88 | 1014.2 |
| 20260905121422 | 25 | 215 | 4.8 | 6.4 | 0.00 | 0.00 | 0.00 | 88 | 1014.2 |
| 20260905120923 | 25 | 230 | 3.2 | 4.8 | 0.00 | 0.00 | 0.00 | 88 | 1014.0 |
| 20260905120424 | 25 | 224 | 1.6 | 6.4 | 0.00 | 0.00 | 0.00 | 89 | 1014.1 |
| 20260905120156 | 24 | 231 | 1.6 | 6.4 | 0.00 | 0.00 | 0.00 | 89 | 1014.1 |
| 20260905115650 | 24 | 215 | 4.8 | 4.8 | 0.00 | 0.00 | 0.00 | 89 | 1014.1 |
| 20260905114924 | 24 | 201 | 3.2 | 6.4 | 0.00 | 0.00 | 0.00 | 89 | 1014.2 |
| 20260905114654 | 24 | 210 | 0.0 | 6.4 | 0.00 | 0.00 | 0.00 | 89 | 1013.9 |
| 20260905114152 | 24 | 246 | 3.2 | 6.4 | 0.00 | 0.00 | 0.00 | 89 | 1014.0 |
| 20260905113422 | 24 | 215 | 3.2 | 6.4 | 0.00 | 0.00 | 0.00 | 89 | 1013.7 |
| 20260905112923 | 24 | 248 | 4.8 | 6.4 | 0.00 | 0.00 | 0.00 | 89 | 1013.7 |
| 20260905112424 | 24 | 259 | 3.2 | 6.4 | 0.00 | 0.00 | 0.00 | 88 | 1013.7 |
| 20260905111924 | 24 | 240 | 0.0 | 4.8 | 0.00 | 0.00 | 0.00 | 88 | 1013.6 |
| 20260905111422 | 25 | 203 | 4.8 | 4.8 | 0.00 | 0.00 | 0.00 | 88 | 1013.6 |
| 20260905111155 | 25 | 213 | 0.0 | 6.4 | 0.00 | 0.00 | 0.00 | 88 | 1013.7 |
| 20260905110422 | 25 | 218 | 3.2 | 6.4 | 0.00 | 0.00 | 0.00 | 88 | 1013.3 |
| 20260905105924 | 25 | 240 | 3.2 | 6.4 | 0.00 | 0.00 | 0.00 | 87 | 1013.2 |
| 20260905105422 | 25 | 213 | 4.8 | 6.4 | 0.00 | 0.00 | 0.00 | 87 | 1013.2 |
| 20260905104924 | 25 | 240 | 3.2 | 6.4 | 0.00 | 0.00 | 0.00 | 87 | 1012.9 |
| 20260905104656 | 25 | 211 | 3.2 | 4.8 | 0.00 | 0.00 | 0.00 | 87 | 1013.0 |
| 20260905103923 | 25 | 205 | 3.2 | 4.8 | 0.00 | 0.00 | 0.00 | 87 | 1013.1 |
| 20260905103423 | 25 | 227 | 4.8 | 4.8 | 0.00 | 0.00 | 0.00 | 87 | 1012.9 |
| 20260905103156 | 25 | 240 | 3.2 | 3.2 | 0.00 | 0.00 | 0.00 | 88 | 1012.9 |
| 20260905102423 | 25 | 201 | 3.2 | 3.2 | 0.00 | 0.00 | 0.00 | 88 | 1012.8 |
| 20260905101924 | 25 | 186 | 0.0 | 3.2 | 0.00 | 0.00 | 0.00 | 88 | 1012.9 |
| 20260905101656 | 25 | 164 | 0.0 | 0.0 | 0.00 | 0.00 | 0.00 | 87 | 1012.6 |
| 20260905100922 | 25 | 164 | 0.0 | 3.2 | 0.00 | 0.00 | 0.00 | 87 | 1012.9 |
| 20260905100423 | 25 | 164 | 0.0 | 3.2 | 0.00 | 0.00 | 0.00 | 87 | 1012.8 |
| 20260905095922 | 25 | 150 | 0.0 | 1.6 | 0.00 | 0.00 | 0.00 | 87 | 1012.6 |
| 20260905095422 | 25 | 158 | 0.0 | 3.2 | 0.00 | 0.00 | 0.00 | 86 | 1012.6 |
| 20260905094922 | 25 | 155 | 0.0 | 3.2 | 0.00 | 0.00 | 0.00 | 86 | 1012.9 |
| 20260905094421 | 25 | 316 | 0.0 | 3.2 | 0.00 | 0.00 | 0.00 | 85 | 1012.9 |
| 20260905093923 | 25 | 316 | 0.0 | 3.2 | 0.00 | 0.00 | 0.00 | 85 | 1012.9 |
| 20260905093651 | 25 | 270 | 0.0 | 4.8 | 0.00 | 0.00 | 0.00 | 85 | 1012.7 |
| 20260905092910 | 25 | 224 | 1.6 | 4.8 | 0.00 | 0.00 | 0.00 | 85 | 1013.0 |
| 20260905092410 | 25 | 228 | 3.2 | 6.4 | 0.00 | 0.00 | 0.00 | 84 | 1013.1 |
| 20260905091910 | 25 | 255 | 3.2 | 6.4 | 0.00 | 0.00 | 0.00 | 84 | 1013.0 |
| 20260905091643 | 25 | 213 | 4.8 | 4.8 | 0.00 | 0.00 | 0.00 | 84 | 1012.8 |
| 20260905090909 | 25 | 222 | 4.8 | 4.8 | 0.00 | 0.00 | 0.00 | 84 | 1012.7 |
| 20260905090411 | 25 | 219 | 3.2 | 4.8 | 0.00 | 0.00 | 0.00 | 84 | 1012.7 |
| 20260905085909 | 25 | 240 | 3.2 | 4.8 | 0.00 | 0.00 | 0.00 | 84 | 1013.0 |
| 20260905085642 | 25 | 240 | 0.0 | 4.8 | 0.00 | 0.00 | 0.00 | 84 | 1012.8 |
| 20260905084911 | 26 | 234 | 3.2 | 4.8 | 0.00 | 0.00 | 0.00 | 84 | 1013.0 |
| 20260905084412 | 25 | 240 | 3.2 | 6.4 | 0.00 | 0.00 | 0.00 | 83 | 1012.9 |
| 20260905083910 | 25 | 227 | 3.2 | 6.4 | 0.00 | 0.00 | 0.00 | 83 | 1013.0 |
| 20260905083641 | 26 | 216 | 3.2 | 4.8 | 0.00 | 0.00 | 0.00 | 83 | 1013.1 |